Home   Weather   Prince Albert   Past weeks

Flag for Canada Past Weather in Prince Albert, Saskatchewan, Canada — Yesterday and Last 2 Weeks

Now
23 °F

Passing clouds.


Feels Like: 14 °F
Forecast: 22 / 38 °F
Wind: 8 mph from East

Location: Prince Albert

Current Time: Apr 23, 2017 at 6:12:36 am

Latest Report: Apr 23, 2017 at 5:00 am


Visibility: 15 mi

Pressure: 30.27 "Hg

Humidity: 80%

Dew Point: 18 °F

Location of Prince AlbertLocation

Past Weather in Prince Albert — Graph

°F

Prince Albert Temperature Yesterday

Maximum temperature yesterday: 39 °F (at 4:00 pm)
Minimum temperature yesterday: 21 °F (at 11:00 pm)
Average temperature yesterday: 33 °F

High & Low Weather Summary for the Past Weeks

 TemperatureHumidityPressure
High59 °F (Apr 20, 6:00 pm)100% (Apr 8, 5:00 am)30.45 "Hg (Apr 8, 5:00 am)
Low10 °F (Apr 16, 5:00 am)36% (Apr 22, 6:00 pm)29.28 "Hg (Apr 8, 5:00 am)
Average35 °F73%30.06 "Hg
* Reported Apr 8 4:00 am — Apr 23 4:00 am, Prince Albert, Weather by CustomWeather, © 2017

Note: Actual official high and low records may vary slightly from our data, if they occured in-between our weather recording intervals... More about our weather records

Advertising

Prince Albert Weather History for the Previous 24 Hours

Scroll right to see more
 ConditionsComfort  
Time TempWeatherWind HumidityBarometerVisibility
4:00 am
Sun, Apr 23
23 °FPassing clouds.9 mph80%30.29 "Hg15 mi
3:00 am25 °FPassing clouds.9 mph74%30.30 "Hg15 mi
2:00 am25 °FPassing clouds.10 mph74%30.32 "Hg15 mi
1:00 am27 °FPassing clouds.10 mph69%30.33 "Hg15 mi
12:00 am27 °FPassing clouds.8 mph59%30.34 "Hg15 mi
11:00 pm
Sat, Apr 22
21 °FPassing clouds.8 mph80%30.35 "Hg15 mi
10:00 pm23 °FPassing clouds.No wind68%30.34 "Hg15 mi
9:00 pm27 °FPassing clouds.No wind59%30.33 "Hg15 mi
8:00 pm36 °FScattered clouds.3 mph41%30.32 "Hg15 mi
7:00 pm39 °FScattered clouds.6 mph42%30.32 "Hg15 mi
6:00 pm39 °FPartly sunny.2 mph36%30.34 "Hg15 mi
5:00 pm37 °FBroken clouds.5 mph48%30.36 "Hg15 mi
4:00 pm39 °FBroken clouds.6 mph42%30.37 "Hg15 mi
3:34 pm36 °FBroken clouds.2 mph48%30.38 "Hg15 mi
3:00 pm37 °FLight snow. Mostly cloudy.7 mph52%30.39 "Hg15 mi
2:47 pm36 °FLight snow. Mostly cloudy.8 mph52%30.39 "Hg15 mi
2:00 pm37 °FPartly sunny.6 mph52%30.41 "Hg15 mi
1:00 pm36 °FPartly sunny.7 mph52%30.41 "Hg15 mi
12:00 pm34 °FPartly sunny.10 mph60%30.42 "Hg15 mi
11:00 am34 °FPartly sunny.8 mph60%30.43 "Hg15 mi
10:00 am32 °FPartly sunny.7 mph60%30.44 "Hg15 mi
9:00 am32 °FBroken clouds.9 mph60%30.44 "Hg15 mi
8:00 am30 °FPartly sunny.9 mph64%30.45 "Hg15 mi
7:00 am30 °FOvercast.10 mph64%30.44 "Hg15 mi
6:00 am30 °FPartly sunny.12 mph64%30.44 "Hg15 mi
Weather by CustomWeather, © 2017

See weather overviewHow to use our weather pages